Torna al catalogo

PSLV R/B

AttivoHEO
NORAD 47257·ROCKET BODY·🇮🇳 India

Lanciato Dec 17, 2020 da Satish Dhawan Space Centre

Loading…

Prossimi Passaggi (prossime 24 ore)

TLE

AggiornatoSource: Space-Track

Epoca: Sep 14, 2026, 12:42 UTC

1 47257U 20099B   26257.52939741  .00164346  19101-6  14648-2 0  9994
2 47257  17.8132  92.8515 5330682  93.1997 326.1420  5.22468906 91228

Traccia PSLV R/B in tempo reale con AllMySat

Download on the App Store